Location: Byszew
(52.1813°N, 19.2693°E)
Time: 03:14:56
(UTC+00:00)

Envisat - Visible Passes

Search period start: 27 January 2022 00:00
Search period end: 06 February 2022 00:00
Orbit: 764 x 766 km, 98.2° (Epoch: 26 January)

Date Brightness Start Highest point End Pass type
(mag) Time Alt. Az. Time Alt. Az. Time Alt. Az.
27 Jan 5.9 02:04:39 10° ENE 02:06:35 12° E 02:08:31 10° ESE visible
27 Jan 3.1 03:41:26 10° NNE 03:46:33 72° ESE 03:51:37 10° S visible
27 Jan 4.1 05:21:14 10° N 05:25:06 22° WNW 05:28:57 10° WSW visible
28 Jan 4.4 03:04:47 10° NNE 03:09:30 37° E 03:14:12 10° SSE visible
28 Jan 3.4 04:43:51 10° N 04:48:33 39° WNW 04:53:14 10° SW visible
28 Jan 5.9 16:06:15 10° SW 16:09:30 17° W 16:12:48 10° NW visible
29 Jan 5.4 02:28:36 10° NE 02:32:16 19° E 02:35:53 10° SE visible
29 Jan 2.9 04:06:44 10° NNE 04:11:50 73° WNW 04:16:53 10° SSW visible
29 Jan 4.5 05:47:10 10° NNW 05:50:03 15° NW 05:52:54 10° W visible
30 Jan 3.5 03:29:52 10° NNE 03:34:55 59° E 03:39:56 10° S visible
30 Jan 3.9 05:09:27 10° N 05:13:37 26° WNW 05:17:47 10° WSW visible
30 Jan 6.5 16:34:35 10° W 16:35:12 10° W 16:35:49 10° WNW visible
31 Jan 4.7 02:53:19 10° NNE 02:57:49 30° E 03:02:16 10° SSE visible
31 Jan 3.2 04:32:09 10° N 04:37:01 47° WNW 04:41:52 10° SW visible
01 Feb 5.7 02:17:25 10° NE 02:20:30 16° E 02:23:34 10° ESE visible
01 Feb 2.9 03:55:07 10° NNE 04:00:15 88° WNW 04:05:20 10° SSW visible
01 Feb 4.4 05:35:14 10° NNW 05:38:36 18° NW 05:41:57 10° W visible
02 Feb 3.9 03:18:20 10° NNE 03:23:16 48° E 03:28:10 10° S visible
02 Feb 3.7 04:57:41 10° N 05:02:08 31° WNW 05:06:33 10° WSW visible
02 Feb 6.1 16:21:08 10° WSW 16:23:25 13° W 16:25:42 10° WNW visible
03 Feb 5.0 02:41:56 10° NE 02:46:06 25° E 02:50:15 10° SSE visible
03 Feb 3.0 04:20:29 10° N 04:25:28 57° WNW 04:30:26 10° SW visible
04 Feb 5.9 02:06:28 10° ENE 02:08:43 13° E 02:10:59 10° ESE visible
04 Feb 3.1 03:43:31 10° NNE 03:48:38 76° ESE 03:53:43 10° S visible
04 Feb 4.2 05:23:23 10° N 05:27:08 21° WNW 05:30:54 10° WSW visible
05 Feb 4.3 03:06:49 10° NNE 03:11:36 39° E 03:16:21 10° SSE visible
05 Feb 3.5 04:45:57 10° N 04:50:37 37° WNW 04:55:15 10° SW visible
05 Feb 5.9 16:08:33 10° SW 16:11:38 16° W 16:14:44 10° NW visible
